Theta_e
324 324 323 322 323 323 323 323 323 322 321 322 321 321 321 322 322 314 304 310 314 327 319 309 309 308 309 307 307 307 302 299 299 299 301 304 305 304 306 306 308 313 309 316 332
323 324 324 323 323 323 323 323 322 321 321 321 320 320 321 322 310 306 319 323 326 326 308 307 305 307 306 305 306 305 301 301 304 304 303 304 306 305 305 305 306 308 311 323 332
322 323 324 323 322 323 323 323 322 321 320 320 320 320 321 319 304 303 323 326 328 324 308 308 308 306 303 304 302 303 300 301 302 302 303 303 302 306 305 303 307 307 310 323 327
321 322 323 322 321 322 323 322 321 320 320 320 320 320 321 314 293 309 326 328 329 313 307 306 305 302 301 301 302 300 299 301 301 302 302 302 304 302 305 306 306 310 312 322 326
320 320 321 321 321 322 322 322 320 320 320 320 320 320 314 302 300 313 324 320 312 308 306 305 302 302 299 299 298 299 300 299 300 300 301 301 301 302 303 307 305 305 310 317 324
319 319 319 320 320 322 322 321 320 319 319 320 321 320 307 296 309 315 313 309 309 308 306 305 304 303 300 300 300 299 299 298 300 299 299 299 298 299 302 302 302 303 307 312 320
319 319 319 319 319 321 322 321 320 319 319 320 320 312 303 300 311 313 310 309 309 307 304 305 305 303 302 298 300 299 297 298 298 299 298 299 297 297 303 300 301 301 305 309 315
319 318 318 318 319 321 321 321 320 319 319 320 320 309 298 307 313 309 309 308 309 309 307 307 307 303 301 301 298 296 297 293 295 297 298 298 295 298 299 299 301 302 303 304 308
318 317 318 318 319 320 320 320 319 318 319 319 310 303 296 313 306 309 309 306 307 307 307 306 306 301 300 297 295 294 291 292 292 297 297 297 296 298 300 300 300 301 302 302 303
317 317 318 318 319 319 319 318 318 318 316 312 308 299 300 299 307 306 308 308 305 305 304 303 302 298 297 295 288 290 289 290 292 294 295 295 295 299 300 299 301 303 303 303 303
318 317 318 318 319 320 317 312 302 301 306 298 298 297 297 305 308 304 306 305 304 303 296 298 295 292 295 296 293 294 291 290 291 294 295 295 295 298 301 300 301 302 304 305 305
318 318 318 318 319 319 313 302 301 303 294 302 301 301 303 306 300 301 305 301 300 295 297 295 292 295 296 292 292 292 291 290 291 294 294 294 294 298 300 300 302 303 303 305 306
317 317 317 318 318 314 307 302 311 306 295 295 300 299 301 304 299 300 303 299 297 294 295 293 293 295 294 291 290 290 290 289 290 291 291 291 292 294 297 297 298 300 301 302 302
317 317 317 317 311 310 304 311 312 307 289 291 294 298 302 303 297 302 303 300 294 293 294 294 293 292 292 291 293 288 292 291 290 290 287 290 286 292 295 295 295 298 299 299 302
317 317 317 315 310 305 307 313 312 302 279 293 293 303 302 297 297 297 302 299 293 292 294 291 291 291 290 292 293 291 292 291 290 290 289 288 287 291 290 292 296 297 299 300 301
316 316 316 312 313 310 312 311 306 289 279 288 294 294 295 295 295 297 298 299 297 293 292 292 294 293 293 290 293 292 291 290 289 288 283 288 288 289 291 293 293 296 297 298 299
316 315 313 314 306 314 313 307 286 281 290 288 289 293 293 291 292 294 293 292 290 286 287 290 291 293 294 290 292 291 290 283 282 282 282 284 284 290 293 292 293 296 297 298 300
310 314 310 310 313 313 309 295 281 287 287 293 291 292 288 291 292 291 291 289 293 290 288 285 283 291 293 292 290 290 290 285 279 279 282 283 282 289 293 293 294 296 298 298 299
303 300 304 308 311 312 299 285 286 287 291 291 290 287 287 290 291 291 290 290 293 291 287 285 286 292 292 293 293 289 286 290 282 277 282 285 288 293 293 293 295 296 297 297 297
297 296 296 306 311 305 292 287 289 291 294 293 287 289 285 288 288 289 289 293 292 293 295 290 284 289 291 294 293 291 293 285 285 281 279 283 284 288 290 292 294 295 296 296 296
296 292 297 307 308 296 285 288 290 294 296 292 290 287 288 287 289 288 288 292 295 292 294 291 288 286 290 289 289 287 286 287 288 286 283 281 285 293 294 296 295 296 296 296 296
291 288 297 305 290 287 285 290 294 294 296 297 294 292 289 289 288 289 288 291 295 294 289 294 290 285 287 291 292 291 290 289 285 282 284 284 286 292 292 297 297 295 294 295 296
288 291 297 301 284 286 289 290 293 293 294 294 294 294 293 290 287 290 291 294 294 294 292 293 289 285 284 288 290 288 289 291 290 288 283 283 286 292 293 295 296 294 294 294 295
288 285 289 294 293 289 288 288 288 294 294 296 295 297 294 290 291 289 290 294 294 295 296 295 288 286 283 286 290 286 288 288 288 285 285 285 288 290 292 293 293 294 295 294 294
286 283 287 285 287 290 290 289 288 288 293 295 292 293 293 290 291 289 291 293 296 296 295 293 286 288 289 290 289 290 289 288 286 288 285 288 288 292 294 294 295 296 295 293 293
285 284 286 284 288 287 288 287 288 289 290 289 290 292 293 289 292 289 292 292 292 294 292 292 287 288 285 289 288 286 289 289 289 289 289 289 289 296 297 298 295 294 293 292 292
288 290 287 284 285 286 285 286 287 290 292 293 293 291 289 293 295 294 294 293 291 290 291 289 288 285 282 288 286 282 286 288 289 291 291 287 292 295 294 295 295 294 293 293 292
Wind_Speed
20 19 17 17 15 15 13 11 11 8 6 6 4 6 4 3 7 5 7 5 4 8 5 5 2 4 1 4 2 1 3 5 7 6 6 7 7 4 1 3 3 5 1 4 14
18 19 17 18 15 14 14 12 12 11 8 7 4 4 3 1 2 5 4 4 5 8 6 10 6 6 4 4 2 3 4 7 5 5 5 10 7 9 6 6 5 4 4 5 12
20 17 17 18 15 14 14 13 12 11 9 8 5 4 2 2 2 3 5 6 7 10 3 3 6 2 3 2 3 3 5 5 6 4 4 8 5 5 6 6 9 11 12 11 11
21 18 17 16 15 14 13 13 11 11 10 8 7 5 1 3 6 1 1 7 9 6 7 6 7 5 4 7 3 5 0 2 5 4 5 9 7 6 8 2 3 6 7 14 16
21 19 17 16 15 14 14 13 12 11 10 9 7 5 4 4 3 1 4 8 7 6 7 6 7 5 5 5 4 2 5 2 4 5 3 6 4 1 8 8 4 3 6 13 14
20 20 18 16 16 14 13 13 12 11 9 8 7 7 3 8 1 3 6 6 5 5 6 6 7 2 6 5 5 4 3 4 3 4 2 3 2 2 3 1 6 7 8 10 14
21 20 19 18 15 15 14 13 12 10 8 6 6 3 3 3 0 4 4 3 5 4 5 2 4 2 6 7 3 7 6 3 2 2 3 2 6 8 6 1 3 7 10 8 12
22 21 21 19 16 16 15 13 11 9 7 6 5 3 3 1 2 4 5 5 5 4 1 2 2 6 1 7 4 5 2 7 3 2 1 5 13 2 2 5 11 7 7 10 11
23 21 21 20 18 17 15 13 10 8 6 5 4 3 3 3 4 3 2 8 8 4 5 2 3 3 3 7 5 1 6 6 3 2 2 6 7 2 2 2 4 8 9 10 11
21 21 21 21 20 20 16 13 9 9 5 3 3 3 4 5 3 4 2 7 5 8 5 2 2 4 3 8 11 7 5 3 5 5 3 5 14 8 7 7 9 7 7 9 10
23 22 22 22 23 22 18 11 8 5 2 2 6 0 4 4 2 2 3 6 5 6 7 1 8 14 12 8 1 6 4 6 2 2 4 9 13 14 11 9 12 13 12 12 13
23 23 23 25 23 23 10 5 6 7 7 2 2 1 1 3 4 3 5 8 8 11 10 5 13 6 6 5 4 6 6 5 2 2 4 2 13 14 11 10 13 14 14 14 12
24 24 24 25 22 12 8 4 5 5 6 3 3 3 3 4 3 13 11 5 7 10 14 15 1 11 8 8 8 4 8 4 1 2 1 5 11 9 4 8 9 13 10 10 12
25 25 25 25 13 13 6 7 5 3 4 6 7 5 5 5 3 2 4 4 3 12 10 8 3 8 5 10 10 8 6 4 6 4 5 3 7 4 4 9 8 6 6 3 2
24 26 29 19 11 13 9 10 3 1 5 10 5 3 3 6 10 1 2 2 11 9 8 6 10 10 11 8 10 3 5 5 2 3 2 5 6 3 2 8 10 5 6 5 2
25 27 29 7 5 6 10 8 2 5 10 6 4 9 11 5 2 5 4 5 3 6 3 3 2 3 1 5 1 12 9 6 3 2 7 9 8 5 7 10 3 5 5 2 3
29 29 20 7 8 11 12 6 7 7 3 9 7 8 14 9 6 5 14 12 10 9 11 4 4 4 4 7 2 4 12 3 4 5 7 1 4 11 6 6 3 9 4 4 4
14 22 6 1 3 11 5 9 6 7 8 4 6 13 11 11 8 5 14 15 12 5 7 13 9 11 7 5 10 8 9 5 8 6 2 2 10 6 1 2 6 2 4 5 4
8 3 4 4 5 3 10 9 9 8 9 11 10 10 8 6 7 10 12 14 17 15 14 10 10 2 2 4 10 7 9 2 7 1 2 6 7 11 9 9 5 6 7 7 5
2 4 3 6 7 4 6 6 4 2 6 8 8 9 14 16 11 16 13 13 10 16 9 7 4 0 4 3 1 6 11 4 2 5 7 7 7 12 6 11 9 10 10 9 7
4 5 4 6 8 10 8 4 5 4 3 8 4 7 6 11 12 15 12 8 19 14 13 7 4 4 5 13 17 6 6 2 3 4 4 5 10 5 14 15 18 13 11 10 9
3 5 3 1 7 1 6 6 2 4 1 3 3 4 7 11 13 12 18 8 10 14 18 13 3 8 9 2 4 6 12 16 8 11 6 4 12 1 5 11 16 15 11 9 8
4 3 3 3 5 5 4 4 1 4 3 3 4 2 3 8 5 14 8 3 8 16 15 12 7 3 3 4 4 9 9 14 18 3 12 9 15 3 2 9 11 14 13 10 9
3 4 2 2 1 6 7 5 5 1 1 2 3 4 5 5 4 2 8 3 6 9 6 12 3 13 19 18 6 10 12 12 16 10 17 14 27 5 8 13 12 13 13 13 11
3 2 2 6 5 7 6 7 7 6 4 2 3 6 4 6 5 7 4 1 2 1 7 8 9 10 20 15 10 13 18 18 19 25 19 28 26 17 18 19 21 18 14 14 14
3 3 2 3 5 8 7 12 12 6 8 5 6 7 15 7 7 2 4 3 2 2 6 3 8 6 16 14 15 13 13 20 27 31 27 29 24 10 15 12 15 19 19 18 16
1 1 1 4 5 10 8 6 13 8 5 6 9 5 4 7 3 4 4 1 1 3 6 8 8 7 21 8 5 7 31 21 21 27 23 28 34 9 14 20 23 20 20 20 19
Wind_Direction
176 179 184 176 188 177 179 177 160 171 167 176 167 143 165 165 164 188 209 188 159 160 149 136 216 126 111 109 101 235 187 177 165 179 140 157 177 147 86 151 186 183 304 64 138
180 176 177 174 181 181 173 174 162 160 159 159 170 135 154 265 196 238 241 196 189 153 155 170 174 158 139 117 126 206 216 185 168 174 165 171 192 154 180 172 203 195 150 135 150
176 177 173 169 175 180 175 168 159 154 158 150 147 138 173 205 232 244 325 200 161 170 266 189 144 202 138 138 157 148 216 159 177 157 165 168 187 167 177 198 217 211 181 163 171
172 177 172 168 174 174 176 165 157 157 155 151 149 148 217 206 198 11 60 155 148 161 154 161 164 156 146 173 152 156 72 189 137 144 150 166 135 185 220 118 45 209 174 167 182
171 174 171 170 170 178 174 161 162 157 157 153 152 152 163 195 236 73 128 117 126 154 196 180 173 151 169 150 122 183 151 118 103 129 103 130 168 219 242 225 149 65 183 195 195
170 168 169 163 170 173 167 162 163 159 157 158 158 158 188 211 44 151 143 122 135 165 182 187 201 172 119 158 192 115 108 123 144 130 82 185 166 240 184 326 222 209 213 212 213
169 164 160 164 179 165 160 162 157 156 154 164 163 175 183 173 51 152 155 139 139 149 171 206 163 202 132 130 128 124 116 142 143 150 120 240 234 226 238 312 273 222 220 219 222
168 166 163 165 172 158 150 155 146 152 152 161 163 184 216 19 169 168 161 110 105 81 64 95 122 96 47 126 80 119 161 181 127 193 113 225 249 204 317 212 241 234 228 226 226
168 167 162 166 160 149 145 146 135 139 130 142 164 231 189 134 189 162 199 138 116 87 69 77 65 87 143 151 134 56 191 198 162 217 168 219 268 146 166 175 250 233 240 237 239
164 164 163 163 154 142 144 136 134 121 105 145 75 201 160 182 151 143 81 127 117 120 113 36 80 158 151 197 197 169 170 200 199 172 202 204 254 244 217 274 267 255 236 237 231
165 167 166 157 151 144 138 128 137 125 216 204 179 356 119 111 151 153 147 121 117 130 168 54 216 202 190 198 88 152 165 181 151 113 216 234 255 263 268 271 253 249 240 239 239
167 166 166 153 153 153 157 191 175 146 164 193 63 310 199 196 124 159 179 163 163 168 134 180 230 194 148 144 146 154 165 180 114 92 236 282 274 272 253 249 245 249 240 245 256
166 162 159 150 149 150 174 215 144 171 110 172 210 200 189 178 162 174 180 130 169 155 182 205 212 165 162 168 176 192 192 171 116 128 83 304 268 253 239 249 254 252 258 258 260
160 159 153 136 144 165 197 171 176 219 110 167 203 227 166 166 170 44 186 145 117 185 160 227 73 177 201 196 191 211 201 152 142 179 253 337 282 265 253 273 243 244 244 224 215
159 157 146 151 139 176 157 154 159 213 205 153 161 59 176 184 132 168 317 64 150 149 180 171 169 164 203 211 184 196 138 130 114 152 288 189 261 249 348 266 252 189 153 139 126
158 151 152 123 159 157 128 142 69 88 229 162 135 165 158 157 74 120 152 54 80 113 62 93 40 182 33 40 254 142 101 65 68 125 245 211 228 220 208 228 167 150 153 166 145
165 154 158 161 164 156 151 128 128 196 148 175 165 177 179 163 125 155 168 174 165 171 197 143 177 165 152 106 97 192 158 140 196 201 251 70 204 258 224 217 228 174 176 155 136
90 143 113 78 170 155 163 139 169 178 199 122 135 155 177 149 186 138 155 184 221 204 155 194 204 180 167 195 174 191 196 178 196 197 207 100 231 248 217 316 232 172 143 145 141
58 44 79 325 115 159 160 180 195 184 159 141 126 153 181 188 159 184 196 202 195 196 203 188 224 143 186 158 156 178 217 111 101 49 256 209 256 269 223 233 190 172 165 154 145
73 75 9 304 129 113 126 181 204 237 135 161 154 182 179 184 166 191 175 203 203 193 206 187 182 159 140 151 273 202 136 164 225 198 230 225 265 246 202 213 186 184 179 161 148
94 97 289 339 135 159 188 173 186 193 192 179 143 135 181 173 190 188 204 211 205 184 193 162 227 102 152 211 181 161 182 199 220 214 235 260 250 213 222 197 187 179 169 164 160
88 95 336 225 124 171 149 163 162 142 132 97 84 125 157 163 183 200 207 228 189 157 190 195 193 185 196 23 309 239 214 189 191 210 232 284 260 121 275 186 171 167 168 159 154
75 86 40 31 151 159 119 129 157 130 169 142 126 158 159 169 190 218 197 219 170 173 186 165 216 191 202 238 203 226 206 222 226 40 206 212 254 32 126 165 162 159 162 160 158
107 114 41 55 272 137 136 149 139 26 84 116 107 137 143 180 232 197 220 205 204 198 144 153 126 212 225 230 156 214 214 212 212 223 230 224 255 170 173 180 170 170 171 164 167
25 103 24 172 188 147 142 146 149 156 209 234 248 226 187 205 201 213 182 141 107 188 176 157 199 211 243 249 232 218 212 210 208 224 224 235 239 237 194 187 191 174 168 173 176
127 142 88 64 152 157 183 186 174 163 148 192 216 217 228 230 202 217 213 187 210 99 175 233 217 182 251 243 230 239 221 210 211 225 231 243 248 258 188 183 174 185 182 186 180
137 70 96 123 140 176 192 156 197 182 183 157 193 153 240 260 280 124 124 47 16 18 211 184 186 190 250 234 206 248 231 219 226 228 222 233 240 183 187 192 191 185 189 186 177